Change the Weather History Date:

Thursday, December 12, 2013

  Actual Average (KBMQ) Record (KBMQ)
Temperature  
Mean Temperature 40 °F -  
Max Temperature 52 °F 58 °F 80 °F (2004)
Min Temperature 28 °F 37 °F 23 °F (2000)
Degree Days  
Heating Degree Days 25    
Moisture  
Dew Point 30 °F    
Average Humidity 68    
Maximum Humidity 100    
Minimum Humidity 44    
Precipitation  
Precipitation 0.00 in - - ()
Sea Level Pressure  
Sea Level Pressure 30.46 in    
Wind  
Wind Speed 2 mph (ESE)    
Max Wind Speed 6 mph    
Max Gust Speed -    
Visibility 10 miles    
Events      
Averages and records for this station are not official NWS values.
T = Trace of Precipitation, MM = Missing Value Source: NWS Daily Summary

Daily Weather History Graph

Daily Weather History Graph

Search for Another Location

Airport or City:

Trip Planner

Search our weather history database for the weather conditions in past years. The results will help you decide how hot, cold, wet, or windy it might be!

Date:

Astronomy

Dec. 12, 2013 Rise Set
Actual Time 6:21 AM MST 4:33 PM MST
Civil Twilight 5:54 AM MST 4:59 PM MST
Nautical Twilight 5:24 AM MST 5:29 PM MST
Astronomical Twilight 4:55 AM MST 5:59 PM MST
Moon 1:28 PM MST (12/12) 1:59 AM MST (12/12)
Length of Visible Light 11h 05m
Length of Day
10h 12m
Waxing Gibbous, 81% of the Moon is Illuminated
Dec 12
Waxing Gibbous
Dec 17
Full
Dec 25
Last Quarter
Jan 1
New
Jan 7
First Quarter

Hourly Weather History & Observations

Time (MST) Temp. Windchill Dew Point Humidity Pressure Visibility Wind Dir Wind Speed Gust Speed Precip Events Conditions
12:15 AM 36.1 °F 31.4 °F 27.5 °F 71% 30.55 in 10.0 mi NNW 5.8 mph - N/A   Clear
12:35 AM 36.3 °F 33.7 °F 27.1 °F 69% 30.55 in 10.0 mi North 3.5 mph - N/A   Clear
12:55 AM 35.8 °F 31.9 °F 27.5 °F 72% 30.54 in 10.0 mi NNW 4.6 mph - N/A   Clear
1:15 AM 35.8 °F 33.0 °F 27.3 °F 71% 30.55 in 10.0 mi North 3.5 mph - N/A   Clear
1:35 AM 35.2 °F 32.4 °F 27.1 °F 72% 30.55 in 10.0 mi North 3.5 mph - N/A   Clear
1:55 AM 34.7 °F - 27.3 °F 74% 30.55 in 10.0 mi Calm Calm - N/A   Clear
2:15 AM 34.2 °F - 27.1 °F 75% 30.55 in 10.0 mi Calm Calm - N/A   Clear
2:35 AM 34.7 °F - 26.6 °F 72% 30.56 in 10.0 mi Calm Calm - N/A   Clear
2:55 AM 32.9 °F - 26.6 °F 78% 30.55 in 10.0 mi Calm Calm - N/A   Clear
3:15 AM 32.0 °F - 27.5 °F 83% 30.54 in 10.0 mi Calm Calm - N/A   Clear
3:35 AM 31.1 °F - 26.8 °F 84% 30.54 in 10.0 mi Calm Calm - N/A   Clear
3:55 AM 30.2 °F - 26.6 °F 86% 30.54 in 10.0 mi Calm Calm - N/A   Clear
4:15 AM 29.8 °F - 26.4 °F 87% 30.54 in 10.0 mi Calm Calm - N/A   Clear
4:35 AM 28.9 °F - 26.4 °F 90% 30.54 in 10.0 mi Calm Calm - N/A   Clear
4:55 AM 28.8 °F - 27.5 °F 95% 30.54 in 10.0 mi Calm Calm - N/A   Clear
5:15 AM 28.4 °F - 27.5 °F 96% 30.56 in 10.0 mi Calm Calm - N/A   Clear
5:35 AM 28.0 °F - 27.9 °F 99% 30.56 in 10.0 mi Calm Calm - N/A   Clear
5:55 AM 28.2 °F - 28.2 °F 100% 30.56 in 10.0 mi Calm Calm - N/A   Clear
6:15 AM 28.4 °F - 28.4 °F 100% 30.55 in 10.0 mi Calm Calm - N/A   Clear
6:35 AM 28.2 °F - 28.2 °F 100% 30.56 in 7.0 mi Calm Calm - N/A   Clear
6:55 AM 29.1 °F - 29.1 °F 100% 30.56 in 7.0 mi Calm Calm - N/A   Clear
7:15 AM 31.1 °F - 30.4 °F 97% 30.57 in 10.0 mi Calm Calm - N/A   Clear
7:35 AM 33.1 °F - 28.8 °F 84% 30.57 in 10.0 mi Calm Calm - N/A   Clear
7:55 AM 34.0 °F - 28.4 °F 80% 30.57 in 10.0 mi Calm Calm - N/A   Clear
8:15 AM 35.6 °F 32.8 °F 28.4 °F 75% 30.57 in 10.0 mi NW 3.5 mph - N/A   Clear
8:35 AM 37.8 °F - 28.0 °F 68% 30.59 in 10.0 mi Calm Calm - N/A   Clear
8:55 AM 39.2 °F - 28.9 °F 67% 30.59 in 10.0 mi Calm Calm - N/A   Clear
9:15 AM 40.8 °F 38.8 °F 28.8 °F 62% 30.58 in 10.0 mi NNW 3.5 mph - N/A   Clear
9:35 AM 42.1 °F - 28.8 °F 59% 30.57 in 10.0 mi Calm Calm - N/A   Clear
9:55 AM 44.1 °F - 29.5 °F 57% 30.57 in 10.0 mi Calm Calm - N/A   Clear
10:15 AM 42.8 °F - 29.5 °F 59% 30.56 in 10.0 mi Calm Calm - N/A   Clear
10:35 AM 45.9 °F 43.6 °F 30.6 °F 55% 30.53 in 10.0 mi WNW 4.6 mph - N/A   Clear
10:55 AM 46.2 °F - 30.9 °F 55% 30.52 in 10.0 mi Calm Calm - N/A   Clear
11:15 AM 46.4 °F - 30.4 °F 54% 30.51 in 10.0 mi Calm Calm - N/A   Clear
11:35 AM 46.2 °F - 30.6 °F 54% 30.50 in 10.0 mi Calm Calm - N/A   Clear
11:55 AM 50.0 °F - 31.5 °F 49% 30.49 in 10.0 mi Calm Calm - N/A   Clear
12:15 PM 48.9 °F - 30.9 °F 50% 30.47 in 10.0 mi Calm Calm - N/A   Clear
12:35 PM 48.7 °F - 31.6 °F 52% 30.46 in 10.0 mi North 4.6 mph - N/A   Clear
12:55 PM 51.1 °F - 31.6 °F 47% 30.45 in 10.0 mi NNW 3.5 mph - N/A   Clear
1:15 PM 51.8 °F - 31.6 °F 46% 30.44 in 10.0 mi NNW 3.5 mph - N/A   Clear
1:35 PM 52.5 °F - 31.5 °F 45% 30.42 in 10.0 mi NNW 3.5 mph - N/A   Clear
1:55 PM 52.7 °F - 31.3 °F 44% 30.42 in 10.0 mi Calm Calm - N/A   Clear
2:15 PM 51.3 °F - 30.7 °F 45% 30.41 in 10.0 mi ENE 3.5 mph - N/A   Clear
2:35 PM 51.8 °F - 30.9 °F 45% 30.40 in 10.0 mi ENE 3.5 mph - N/A   Clear
2:55 PM 51.8 °F - 30.7 °F 45% 30.40 in 10.0 mi Calm Calm - N/A   Clear
3:15 PM 52.0 °F - 31.1 °F 45% 30.39 in 10.0 mi East 3.5 mph - N/A   Clear
3:35 PM 50.9 °F - 31.6 °F 48% 30.40 in 10.0 mi NE 3.5 mph - N/A   Clear
3:55 PM 50.9 °F - 32.0 °F 48% 30.40 in 10.0 mi Calm Calm - N/A   Clear
4:15 PM 49.6 °F - 32.2 °F 51% 30.39 in 10.0 mi Calm Calm - N/A   Clear
4:35 PM 46.0 °F - 32.4 °F 59% 30.37 in 10.0 mi Calm Calm - N/A   Clear
4:55 PM 43.3 °F - 32.7 °F 66% 30.37 in 10.0 mi Calm Calm - N/A   Clear
5:15 PM 42.3 °F 40.5 °F 32.9 °F 69% 30.37 in 10.0 mi South 3.5 mph - N/A   Clear
5:35 PM 41.5 °F 39.6 °F 32.4 °F 70% 30.37 in 10.0 mi South 3.5 mph - N/A   Clear
5:55 PM 41.9 °F - 32.2 °F 68% 30.39 in 10.0 mi Calm Calm - N/A   Clear
6:15 PM 41.5 °F - 33.1 °F 72% 30.39 in 10.0 mi Calm Calm - N/A   Clear
6:35 PM 42.8 °F - 33.1 °F 69% 30.39 in 10.0 mi Calm Calm - N/A   Clear
6:55 PM 43.9 °F 42.3 °F 32.9 °F 65% 30.35 in 10.0 mi ESE 3.5 mph - N/A   Clear
7:15 PM 44.6 °F 43.1 °F 32.5 °F 63% 30.35 in 10.0 mi SE 3.5 mph - N/A   Clear
7:35 PM 44.6 °F 42.2 °F 32.4 °F 62% 30.34 in 10.0 mi SSE 4.6 mph - N/A   Clear
7:55 PM 44.2 °F 41.8 °F 32.2 °F 63% 30.35 in 10.0 mi SSE 4.6 mph - N/A   Clear
8:15 PM 44.1 °F 41.5 °F 32.0 °F 63% 30.34 in 10.0 mi SSE 4.6 mph - N/A   Clear
8:35 PM 43.7 °F 41.1 °F 32.0 °F 63% 30.35 in 10.0 mi South 4.6 mph - N/A   Clear
8:55 PM 43.2 °F 40.5 °F 32.0 °F 65% 30.34 in 10.0 mi South 4.6 mph - N/A   Clear
9:15 PM 42.8 °F 40.1 °F 32.0 °F 66% 30.34 in 10.0 mi SSE 4.6 mph - N/A   Clear
9:35 PM 42.8 °F 40.1 °F 32.0 °F 66% 30.33 in 10.0 mi SSE 4.6 mph - N/A   Clear
9:55 PM 42.8 °F 41.1 °F 32.0 °F 66% 30.32 in 10.0 mi South 3.5 mph - N/A   Scattered Clouds
10:15 PM 43.0 °F 41.3 °F 32.0 °F 65% 30.32 in 10.0 mi South 3.5 mph - N/A   Clear
10:35 PM 43.0 °F - 32.0 °F 65% 30.30 in 10.0 mi Calm Calm - N/A   Scattered Clouds
10:55 PM 42.8 °F - 32.0 °F 66% 30.28 in 10.0 mi Calm Calm - N/A   Scattered Clouds
11:15 PM 42.8 °F 41.1 °F 32.0 °F 66% 30.29 in 10.0 mi South 3.5 mph - N/A   Clear
11:35 PM 43.0 °F 41.3 °F 32.0 °F 65% 30.29 in 10.0 mi SSE 3.5 mph - N/A   Scattered Clouds
11:55 PM 43.0 °F - 32.0 °F 65% 30.27 in 10.0 mi Calm Calm - N/A   Overcast